This is the latest recevied weather packets stored in our database for station/object WD7OO. If no packets are shown the sender has not sent any weather packets the latest 10 day(s).
| Time | Temp. | Humidity | Pressure | Rain* | Wind** | Luminosity | Snow |
|---|---|---|---|---|---|---|---|
| 1777629270 | 2.78° C | 99% | 1014.4 hPa | 0 mm | - | 0 W/m² | - |
| 1777628966 | 2.78° C | 99% | 1014.5 hPa | 0 mm | - | 0 W/m² | - |
| 1777628663 | 2.78° C | 99% | 1014.4 hPa | 0 mm | - | 0 W/m² | - |
| 1777628359 | 2.78° C | 99% | 1014.7 hPa | 0 mm | - | 0 W/m² | - |
| 1777628055 | 2.78° C | 99% | 1014.6 hPa | 0 mm | - | 0 W/m² | - |
| 1777627754 | 2.78° C | 99% | 1014.4 hPa | 0 mm | - | 0 W/m² | - |
| 1777627454 | 2.78° C | 99% | 1014.5 hPa | 0 mm | - | 0 W/m² | - |
| 1777627150 | 2.78° C | 99% | 1014.6 hPa | 0 mm | - | 0 W/m² | - |
| 1777626847 | 2.78° C | 99% | 1014.8 hPa | 1.78 mm | - | 0 W/m² | - |
| 1777626543 | 2.78° C | 99% | 1014.4 hPa | 0 mm | - | 0 W/m² | - |
| 1777626238 | 2.78° C | 99% | 1014.3 hPa | 0 mm | - | 0 W/m² | - |
| 1777625936 | 2.78° C | 99% | 1014.5 hPa | 0 mm | - | 0 W/m² | - |
| 1777625632 | 2.78° C | 99% | 1014.4 hPa | 0 mm | - | 0 W/m² | - |
| 1777625328 | 2.78° C | 99% | 1014.4 hPa | 1.27 mm | - | 0 W/m² | - |
| 1777625025 | 3.33° C | 99% | 1014.4 hPa | 1.27 mm | - | 0 W/m² | - |
| 1777624722 | 2.78° C | 99% | 1014.4 hPa | 0 mm | - | 0 W/m² | - |
| 1777624418 | 2.78° C | 99% | 1014.5 hPa | 1.78 mm | - | 0 W/m² | - |
| 1777624114 | 2.78° C | 99% | 1014.5 hPa | 0 mm | - | 0 W/m² | - |
| 1777623811 | 2.78° C | 99% | 1014.6 hPa | 0 mm | - | 0 W/m² | - |
| 1777623508 | 3.33° C | 99% | 1014.4 hPa | 1.27 mm | - | 0 W/m² | - |
| 1777623205 | 3.33° C | 99% | 1014.3 hPa | 1.27 mm | - | 0 W/m² | - |
| 1777622902 | 3.33° C | 99% | 1014.6 hPa | 0 mm | - | 0 W/m² | - |
| 1777622598 | 3.33° C | 99% | 1014.2 hPa | 1.78 mm | - | 0 W/m² | - |
| 1777622295 | 3.33° C | 99% | 1013.9 hPa | 1.78 mm | - | 0 W/m² | - |
| 1777621992 | 3.33° C | 99% | 1014 hPa | 1.27 mm | - | 0 W/m² | - |
* Rain latest hour (hover to see other rain measurements)
** Current wind speed in m/s (hover to see current wind gust speed)